Вернуться в каталог

STARLINK-37006

АктивенСвязьVLEO
NORAD 68187·PAYLOAD·🇺🇸 United States

Запущен Mar 14, 2026 с Vandenberg Space Force Base

Loading…

Ближайшие Пролёты (ближайшие 24 часа)

TLE

СвежийSource: CelesTrak SupGP

Эпоха: Sep 14, 2026, 21:24 UTC

1 68187C 26050W   26257.89215278 -.00002607  00000+0 -77020-4 0  2570
2 68187  53.1582 104.2129 0001360  82.4103 261.4788 15.34387184    14

Отслеживайте STARLINK-37006 в реальном времени с AllMySat

Download on the App Store